Regional Weather Roundup
Issued by NWS Huntsville, AL

Home | Current Version | Previous Version | Text Only | Print | Product List | Glossary On
Versions: 1 2 3 4 5 6 7 8 9 10 11 12 13 14 15 16 17 18 19 20 21 22 23 24 25 26 27 28 29 30 31 32 33 34 35 36 37 38 39 40 41 42 43 44 45 46 47 48 49 50
388
ASUS44 KHUN 230310
RWRHUN

WEATHER ROUNDUP FOR THE TENNESSEE VALLEY
NATIONAL WEATHER SERVICE HUNTSVILLE AL
1000 PM CDT FRI SEP 22 2017

ALZ001>004-230400-
NORTHWEST ALABAMA

CITY           SKY/WX    TMP DP  RH WIND       PRES   REMARKS
SHOALS AIRPORT CLEAR     73  69  87 CALM      30.02R
$$

ALZ005>007-016-230400-
NORTH CENTRAL ALABAMA

CITY           SKY/WX    TMP DP  RH WIND       PRES   REMARKS
DECATUR AP     CLEAR     70  70 100 N3        30.02R
HUNTSVILLE AP  CLEAR     74  72  93 SE3       30.02R
MERIDIANVILLE  CLEAR     70  68  94 CALM      30.03R
REDSTONE ARSN  CLEAR     73  69  90 NE3       30.01R
VINEMONT AP    FAIR      70  69  96 CALM      30.05S FOG
$$

ALZ008>010-230400-
NORTHEAST ALABAMA

CITY           SKY/WX    TMP DP  RH WIND       PRES   REMARKS
ALBERTVILLE    CLEAR     72  72 100 NE3       30.02S
FORT PAYNE     CLEAR     70  66  88 CALM      30.03S
SCOTTSBORO HCN   N/A     70 N/A N/A MISG        N/A
VALLEY HEAD      N/A     68 N/A N/A MISG        N/A
$$

TNZ076-096-097-230400-
SOUTHEASTERN MIDDLE TENNESSEE

CITY           SKY/WX    TMP DP  RH WIND       PRES   REMARKS
TULLAHOMA      CLEAR     68  64  88 CALM      30.06S
WINCHESTER     CLEAR     70  66  88 CALM      30.05R
$$

...SURROUNDING SITES...

CITY           SKY/WX    TMP DP  RH WIND       PRES   REMARKS
ATLANTA        PTCLDY    75  68  78 CALM      30.04R
ANNISTON       CLEAR     72  70  93 CALM      30.02R
BIRMINGHAM     PTCLDY    76  68  76 CALM      30.02S
CHATTANOOGA    PTCLDY    75  68  78 NW3       30.03S
DALTON         CLEAR     70  70 100 CALM      30.05R
GADSDEN        CLEAR     72  71  97 CALM      30.02R
GOLDEN TRNGL   NOT AVBL
HALEYVILLE     FAIR      71  71 100 CALM      30.05R FOG
JACKSON TN     CLEAR     72  71  97 CALM      30.01S
MEMPHIS        PTCLDY    82  68  62 E7        29.99S
NASHVILLE      PTCLDY    75  68  78 N3        30.03S
OXFORD MS      FAIR      73  70  88 CALM      30.01S
ROME           CLEAR     74  72  93 NE3       30.02R
SAVANNAH       CLEAR     72  70  94 CALM      30.00S
SELMER         CLEAR     72  70  94 CALM      30.01R
TUPELO         CLEAR     77  70  79 N3        29.99R
TUSCALOOSA     CLEAR     75  74  96 CALM      29.98R
$$

...GULF COAST WEATHER...

CITY           SKY/WX    TMP DP  RH WIND       PRES   REMARKS
GULF SHORES    CLEAR     73  73 100 CALM      29.96S
PENSACOLA      CLEAR     74  70  87 CALM      29.95R
DESTIN         CLEAR     83  72  69 CALM      29.94F
PANAMA CITY    CLEAR     76  74  93 CALM      29.95S
APPALACHICOLA  CLEAR     76  74  93 CALM      29.94S
$$





USA.gov is the U.S. government's official web portal to all federal, state and local government web resources and services.